Weather History for Big Bear City, CA

Change the Weather History Date:

Friday, January 31, 2014

  Actual Average (KBUO) Record (KBUO)
Temperature  
Mean Temperature 30 °F -  
Max Temperature 35 °F 59 °F 73 °F (1997)
Min Temperature 24 °F 40 °F 35 °F (1999)
Degree Days  
Heating Degree Days 36    
Moisture  
Dew Point 25 °F    
Average Humidity 80    
Maximum Humidity 100    
Minimum Humidity 51    
Precipitation  
Precipitation 0.02 in - - ()
Sea Level Pressure  
Sea Level Pressure 29.88 in    
Wind  
Wind Speed 10 mph (WSW)    
Max Wind Speed 17 mph    
Max Gust Speed 30 mph    
Visibility 8 miles    
Events Rain , Snow    
Averages and records for this station are not official NWS values.
T = Trace of Precipitation, MM = Missing Value Source: NWS Daily Summary

Daily Weather History Graph

Daily Weather History Graph

Search for Another Location

Airport:

Trip Planner

Search our weather history database for the weather conditions in past years. The results will help you decide how hot, cold, wet, or windy it might be!

Date:

Astronomy

Jan. 31, 2014 Rise Set
Actual Time 6:45 AM PST 5:16 PM PST
Civil Twilight 6:19 AM PST 5:43 PM PST
Nautical Twilight 5:49 AM PST 6:13 PM PST
Astronomical Twilight 5:19 AM PST 6:42 PM PST
Moon 7:03 AM PST (1/31) 6:40 PM PST (1/31)
Length of Visible Light 11h 23m
Length of Day
10h 31m
New Moon, 1% of the Moon is Illuminated
Jan 31
New Moon
Feb 6
First Quarter
Feb 14
Full
Feb 22
Last Quarter
Mar 1
New

Hourly Weather History & Observations

Time (PST) Temp. Windchill Dew Point Humidity Pressure Visibility Wind Dir Wind Speed Gust Speed Precip Events Conditions
12:15 AM 33.8 °F 27.7 °F 32.0 °F 93% 29.87 in 3.0 mi WSW 6.9 mph 19.6 mph N/A Rain Light Rain
12:35 AM 33.8 °F 27.0 °F 32.0 °F 93% 29.87 in 2.5 mi WSW 8.1 mph 20.7 mph N/A Rain Rain
12:55 AM 33.8 °F 24.3 °F 32.0 °F 93% 29.87 in 4.0 mi SW 13.8 mph 19.6 mph N/A   Drizzle
1:15 AM 32.0 °F 24.8 °F 32.0 °F 100% 29.86 in 5.0 mi SW 8.1 mph - N/A Rain Light Rain
1:35 AM 32.0 °F 24.8 °F 32.0 °F 100% 29.86 in 7.0 mi WSW 8.1 mph - N/A Rain Light Rain
1:55 AM 32.0 °F 24.2 °F 32.0 °F 100% 29.86 in 4.0 mi SW 9.2 mph 23.0 mph N/A Snow Light Snow
2:15 AM 32.0 °F 24.8 °F 32.0 °F 100% 29.85 in 2.5 mi WSW 8.1 mph 23.0 mph N/A Snow Light Snow
2:35 AM 32.0 °F 22.5 °F 32.0 °F 100% 29.85 in 1.8 mi SW 12.7 mph 21.9 mph 0.01 in Snow Light Snow
2:55 AM 32.0 °F 23.0 °F 30.2 °F 93% 29.83 in 2.5 mi SW 11.5 mph 19.6 mph 0.01 in Snow Light Snow
3:15 AM 32.0 °F 24.8 °F 30.2 °F 93% 29.82 in 3.0 mi SW 8.1 mph 29.9 mph N/A Snow Light Snow
3:35 AM 32.0 °F 23.0 °F 30.2 °F 93% 29.81 in 7.0 mi WSW 11.5 mph 24.2 mph N/A   Mostly Cloudy
3:55 AM 32.0 °F 24.8 °F 30.2 °F 93% 29.81 in 3.0 mi WSW 8.1 mph 21.9 mph N/A Snow Light Snow
4:15 AM 32.0 °F 24.8 °F 30.2 °F 93% 29.81 in 2.0 mi WSW 8.1 mph 21.9 mph N/A Snow Light Snow
4:35 AM 32.0 °F 24.2 °F 30.2 °F 93% 29.81 in 7.0 mi WSW 9.2 mph 21.9 mph N/A Snow Light Snow
4:55 AM 32.0 °F 22.1 °F 30.2 °F 93% 29.81 in 4.0 mi WSW 13.8 mph 21.9 mph N/A Snow Light Snow
5:15 AM 32.0 °F 22.1 °F 30.2 °F 93% 29.82 in 4.0 mi WSW 13.8 mph 24.2 mph N/A Snow Light Snow
5:35 AM 32.0 °F 23.6 °F 30.2 °F 93% 29.83 in 3.0 mi WSW 10.4 mph 25.3 mph N/A Snow Light Snow
5:55 AM 32.0 °F 23.0 °F 30.2 °F 93% 29.84 in 2.5 mi West 11.5 mph 24.2 mph 0.01 in Snow Light Snow
6:15 AM 32.0 °F 23.6 °F 30.2 °F 93% 29.84 in 2.5 mi WSW 10.4 mph 19.6 mph N/A Snow Light Snow
6:35 AM 32.0 °F 24.2 °F 30.2 °F 93% 29.85 in 1.8 mi WSW 9.2 mph 18.4 mph N/A Snow Light Snow
6:55 AM 32.0 °F 21.6 °F 30.2 °F 93% 29.85 in 7.0 mi West 15.0 mph 23.0 mph N/A   Overcast
7:15 AM 32.0 °F 21.2 °F 30.2 °F 93% 29.86 in 2.0 mi West 16.1 mph 25.3 mph N/A Snow Light Snow
7:35 AM 32.0 °F 23.0 °F 30.2 °F 93% 29.87 in 3.0 mi WSW 11.5 mph 24.2 mph N/A Snow Light Snow
7:55 AM 32.0 °F 23.6 °F 30.2 °F 93% 29.87 in 2.0 mi WSW 10.4 mph 20.7 mph N/A Snow Light Snow
8:15 AM 32.0 °F 24.8 °F 30.2 °F 93% 29.88 in 2.5 mi WSW 8.1 mph - N/A Snow Light Snow
8:35 AM 32.0 °F 22.1 °F 28.4 °F 87% 29.89 in 4.0 mi WSW 13.8 mph 19.6 mph N/A   Mostly Cloudy
8:55 AM 32.0 °F 22.5 °F 28.4 °F 87% 29.89 in 5.0 mi WSW 12.7 mph 21.9 mph N/A   Mostly Cloudy
9:15 AM 32.0 °F 25.6 °F 30.2 °F 93% 29.90 in 1.5 mi West 6.9 mph 20.7 mph N/A Snow Light Snow
9:35 AM 32.0 °F 22.1 °F 28.4 °F 87% 29.90 in 10.0 mi WSW 13.8 mph 21.9 mph N/A   Mostly Cloudy
9:55 AM 32.0 °F 23.6 °F 28.4 °F 87% 29.92 in 10.0 mi SW 10.4 mph 18.4 mph N/A   Mostly Cloudy
10:15 AM 32.0 °F 24.8 °F 28.4 °F 87% 29.93 in 10.0 mi WSW 8.1 mph 20.7 mph N/A   Mostly Cloudy
10:35 AM 32.0 °F 24.2 °F 26.6 °F 80% 29.93 in 10.0 mi SW 9.2 mph - N/A   Overcast
10:55 AM 32.0 °F 24.8 °F 28.4 °F 87% 29.92 in 10.0 mi SW 8.1 mph - N/A   Overcast
11:15 AM 32.0 °F 25.6 °F 26.6 °F 80% 29.91 in 10.0 mi WSW 6.9 mph - N/A   Mostly Cloudy
11:35 AM 33.8 °F 27.0 °F 26.6 °F 75% 29.90 in 10.0 mi WSW 8.1 mph 16.1 mph N/A   Scattered Clouds
11:55 AM 33.8 °F 23.9 °F 28.4 °F 81% 29.89 in 10.0 mi West 15.0 mph - N/A   Mostly Cloudy
12:15 PM 33.8 °F 23.9 °F 28.4 °F 81% 29.88 in 10.0 mi West 15.0 mph 21.9 mph N/A   Mostly Cloudy
12:35 PM 32.0 °F 20.8 °F 26.6 °F 80% 29.88 in 10.0 mi West 17.3 mph 23.0 mph N/A   Scattered Clouds
12:55 PM 33.8 °F 23.9 °F 28.4 °F 81% 29.87 in 10.0 mi SW 15.0 mph 21.9 mph N/A   Scattered Clouds
1:15 PM 33.8 °F 24.3 °F 26.6 °F 75% 29.86 in 10.0 mi WSW 13.8 mph 20.7 mph N/A   Scattered Clouds
1:35 PM 33.8 °F 24.8 °F 26.6 °F 75% 29.87 in 10.0 mi WSW 12.7 mph 20.7 mph N/A   Scattered Clouds
1:55 PM 33.8 °F 25.8 °F 26.6 °F 75% 29.87 in 10.0 mi SW 10.4 mph 18.4 mph N/A   Scattered Clouds
2:15 PM 35.6 °F 26.2 °F 26.6 °F 70% 29.86 in 10.0 mi WSW 15.0 mph 25.3 mph N/A   Scattered Clouds
2:35 PM 33.8 °F 25.8 °F 26.6 °F 75% 29.86 in 10.0 mi WSW 10.4 mph - N/A   Scattered Clouds
2:55 PM 33.8 °F 24.8 °F 26.6 °F 75% 29.87 in 10.0 mi WSW 12.7 mph 19.6 mph N/A   Scattered Clouds
3:15 PM 33.8 °F 25.3 °F 26.6 °F 75% 29.87 in 10.0 mi West 11.5 mph 18.4 mph N/A   Scattered Clouds
3:35 PM 32.0 °F 22.5 °F 26.6 °F 80% 29.87 in 10.0 mi West 12.7 mph 19.6 mph N/A   Scattered Clouds
3:55 PM 32.0 °F 23.0 °F 26.6 °F 80% 29.87 in 10.0 mi West 11.5 mph 21.9 mph N/A   Scattered Clouds
4:15 PM 32.0 °F 22.5 °F 26.6 °F 80% 29.88 in 10.0 mi West 12.7 mph 20.7 mph N/A   Scattered Clouds
4:35 PM 32.0 °F 22.5 °F 26.6 °F 80% 29.88 in 10.0 mi West 12.7 mph 17.3 mph N/A   Scattered Clouds
4:55 PM 32.0 °F 22.1 °F 23.0 °F 69% 29.88 in 10.0 mi West 13.8 mph 19.6 mph N/A   Clear
5:15 PM 30.2 °F 22.6 °F 23.0 °F 75% 29.87 in 10.0 mi West 8.1 mph - N/A   Clear
5:35 PM 30.2 °F 24.3 °F 23.0 °F 75% 29.88 in 10.0 mi West 5.8 mph - N/A   Clear
5:55 PM 30.2 °F 22.6 °F 21.2 °F 69% 29.89 in 10.0 mi West 8.1 mph - N/A   Clear
6:15 PM 30.2 °F 21.3 °F 21.2 °F 69% 29.89 in 10.0 mi West 10.4 mph - N/A   Clear
6:35 PM 30.2 °F 21.9 °F 19.4 °F 64% 29.89 in 10.0 mi West 9.2 mph - N/A   Clear
6:55 PM 30.2 °F 24.3 °F 19.4 °F 64% 29.89 in 10.0 mi WSW 5.8 mph - N/A   Clear
7:15 PM 30.2 °F 23.4 °F 19.4 °F 64% 29.90 in 10.0 mi WSW 6.9 mph - N/A   Clear
7:35 PM 30.2 °F 23.4 °F 19.4 °F 64% 29.90 in 10.0 mi WSW 6.9 mph - N/A   Clear
7:55 PM 30.2 °F 23.4 °F 21.2 °F 69% 29.90 in 10.0 mi WSW 6.9 mph - N/A   Clear
8:15 PM 30.2 °F 22.6 °F 19.4 °F 64% 29.91 in 10.0 mi West 8.1 mph - N/A   Clear
8:35 PM 28.4 °F 21.2 °F 19.4 °F 69% 29.91 in 10.0 mi West 6.9 mph - N/A   Clear
8:55 PM 28.4 °F 17.5 °F 17.6 °F 64% 29.91 in 10.0 mi West 13.8 mph - N/A   Clear
9:15 PM 28.4 °F 19.1 °F 14.0 °F 55% 29.91 in 10.0 mi WSW 10.4 mph - N/A   Clear
9:35 PM 28.4 °F 19.7 °F 12.2 °F 51% 29.92 in 10.0 mi West 9.2 mph - N/A   Clear
9:55 PM 28.4 °F 19.1 °F 12.2 °F 51% 29.91 in 10.0 mi West 10.4 mph - N/A   Clear
10:15 PM 26.6 °F 18.2 °F 10.4 °F 51% 29.91 in 10.0 mi West 8.1 mph - N/A   Clear
10:35 PM 26.6 °F 17.5 °F 10.4 °F 51% 29.92 in 10.0 mi West 9.2 mph - N/A   Clear
10:55 PM 26.6 °F 15.7 °F 10.4 °F 51% 29.92 in 10.0 mi West 12.7 mph - N/A   Clear
11:15 PM 26.6 °F 15.2 °F 12.2 °F 55% 29.92 in 10.0 mi West 13.8 mph 18.4 mph N/A   Clear
11:35 PM 24.8 °F 16.1 °F 14.0 °F 64% 29.91 in 10.0 mi WSW 8.1 mph 16.1 mph N/A   Clear
11:55 PM 24.8 °F 16.1 °F 14.0 °F 64% 29.92 in 10.0 mi West 8.1 mph - N/A   Clear